This is the latest recevied weather packets stored in our database for station/object WI0K. If no packets are shown the sender has not sent any weather packets the latest 10 day(s).
| Time | Temp. | Humidity | Pressure | Rain* | Wind** | Luminosity | Snow |
|---|---|---|---|---|---|---|---|
| 1788034747 | 30.56° C | 29% | 1017.7 hPa | 0 mm | - | 388 W/m² | - |
| 1788034445 | 31.11° C | 29% | 1017.7 hPa | 0 mm | - | 545 W/m² | - |
| 1788034144 | 31.11° C | 28% | 1017.7 hPa | 0 mm | - | 651 W/m² | - |
| 1788033843 | 31.11° C | 25% | 1017.7 hPa | 0 mm | - | 847 W/m² | - |
| 1788033543 | 31.11° C | 27% | 1017.8 hPa | 0 mm | - | 753 W/m² | - |
| 1788033242 | 31.11° C | 29% | 1017.8 hPa | 0 mm | - | 971 W/m² | - |
| 1788032941 | 30.56° C | 30% | 1017.8 hPa | 0 mm | - | 999 W/m² | - |
| 1788032641 | 30° C | 31% | 1017.9 hPa | 0 mm | - | 653 W/m² | - |
| 1788032340 | 30° C | 28% | 1017.9 hPa | 0 mm | - | 644 W/m² | - |
| 1788032039 | 30° C | 29% | 1018.1 hPa | 0 mm | - | 602 W/m² | - |
| 1788031738 | 30° C | 30% | 1018.1 hPa | 0 mm | - | 829 W/m² | - |
| 1788031438 | 29.44° C | 28% | 1018.3 hPa | 0 mm | - | 544 W/m² | - |
| 1788031137 | 29.44° C | 29% | 1018.4 hPa | 0 mm | - | 482 W/m² | - |
| 1788030836 | 30° C | 30% | 1018.4 hPa | 0 mm | - | 559 W/m² | - |
| 1788030536 | 30° C | 29% | 1018.4 hPa | 0 mm | - | 425 W/m² | - |
| 1788030235 | 30° C | 30% | 1018.6 hPa | 0 mm | - | 949 W/m² | - |
| 1788029934 | 29.44° C | 30% | 1018.8 hPa | 0 mm | - | 604 W/m² | - |
| 1788029633 | 29.44° C | 30% | 1018.8 hPa | 0 mm | - | 539 W/m² | - |
| 1788029333 | 29.44° C | 31% | 1018.9 hPa | 0 mm | - | 636 W/m² | - |
| 1788029032 | 29.44° C | 31% | 1019 hPa | 0 mm | - | 581 W/m² | - |
| 1788028731 | 29.44° C | 34% | 1019 hPa | 0 mm | - | 441 W/m² | - |
| 1788028431 | 29.44° C | 34% | 1019.1 hPa | 0 mm | - | 420 W/m² | - |
| 1788028129 | 29.44° C | 31% | 1019.1 hPa | 0 mm | - | 495 W/m² | - |
| 1788027829 | 30° C | 30% | 1019.1 hPa | 0 mm | - | 471 W/m² | - |
| 1788027528 | 30.56° C | 27% | 1019.1 hPa | 0 mm | - | 482 W/m² | - |
* Rain latest hour (hover to see other rain measurements)
** Current wind speed in m/s (hover to see current wind gust speed)